[TLELIST] Archives

 

[list_settings.list_name] Current TLEs

June 19th 2012 PST

HST 1 20580U 90037B 12170.18688351 .00001254 00000-0 79607-4 0 193 2 20580 028.4674 137.0014 0003232 074.1274 285.9619 15.02562015 14887 ISS (ZARYA) 1 25544U 98067A 12171.33351889 .00014110 00000-0 20147-3 0 7747 2 25544 051.6380 111.6519 0010897 082.0757 056.4457 15.56493049778349 CXO 1 25867U 99040B 12171.58758019 -.00001058 00000-0 00000+0 0 7548 2 25867 072.5239 004.5294 8749723 278.1774 000.1040 00.37799308 9165 ____________________________________________________________________ These 2-Line ...Continue Reading

[list_settings.list_name] Current TLEs

June 18th 2012 PST

HST 1 20580U 90037B 12170.18688351 .00001254 00000-0 79607-4 0 193 2 20580 028.4674 137.0014 0003232 074.1274 285.9619 15.02562015 14887 ISS (ZARYA) 1 25544U 98067A 12170.42736425 .00012480 00000-0 17925-3 0 7691 2 25544 051.6379 116.1866 0010932 079.7279 017.9238 15.56460322778206 CXO 1 25867U 99040B 12171.58758019 -.00001058 00000-0 00000+0 0 7548 2 25867 072.5239 004.5294 8749723 278.1774 000.1040 00.37799308 9165 ____________________________________________________________________ These 2-Line ...Continue Reading

[list_settings.list_name] Current TLEs

June 17th 2012 PST

HST 1 20580U 90037B 12167.19787993 .00001433 00000-0 92736-4 0 188 2 20580 028.4680 156.5623 0003023 038.4062 321.6764 15.02555726 14433 ISS (ZARYA) 1 25544U 98067A 12169.46487274 .00011183 00000-0 16153-3 0 7622 2 25544 051.6384 121.0010 0010993 075.2743 025.7362 15.56430478778059 CXO 1 25867U 99040B 12171.58758019 -.00001058 00000-0 00000+0 0 7548 2 25867 072.5239 004.5294 8749723 278.1774 000.1040 00.37799308 9165 ____________________________________________________________________ These 2-Line ...Continue Reading

[list_settings.list_name] Current TLEs

June 16th 2012 PST

HST 1 20580U 90037B 12167.19787993 .00001433 00000-0 92736-4 0 188 2 20580 028.4680 156.5623 0003023 038.4062 321.6764 15.02555726 14433 ISS (ZARYA) 1 25544U 98067A 12168.43632103 .00011507 00000-0 16615-3 0 7556 2 25544 051.6381 126.1459 0010852 072.4437 021.6570 15.56407531777893 CXO 1 25867U 99040B 12168.94192681 -.00001204 +00000-0 +00000-0 0 00010 2 25867 072.5065 004.7350 8749347 278.1841 359.8912 00.37799094014670 ____________________________________________________________________ These 2-Line ...Continue Reading

[list_settings.list_name] Current TLEs

June 15th 2012 PST

HST 1 20580U 90037B 12167.19787993 .00001433 00000-0 92736-4 0 188 2 20580 028.4680 156.5623 0003023 038.4062 321.6764 15.02555726 14433 ISS (ZARYA) 1 25544U 98067A 12167.22465132 .00012444 00000-0 17927-3 0 7488 2 25544 051.6381 132.2077 0010825 069.9468 070.6454 15.56381169777705 CXO 1 25867U 99040B 12166.29488002 -.00001246 +00000-0 +00000-0 0 00017 2 25867 072.4934 004.8960 8751114 278.2072 359.4953 00.37802126014676 ____________________________________________________________________ These 2-Line ...Continue Reading

[list_settings.list_name] Current TLEs

June 14th 2012 PST

HST 1 20580U 90037B 12166.20154201 .00001394 00000-0 89930-4 0 176 2 20580 028.4688 163.0832 0003008 027.5789 332.4986 15.02553162 14285 ISS (ZARYA) 1 25544U 98067A 12166.19504756 .00012009 00000-0 17346-3 0 7447 2 25544 051.6373 137.3574 0010704 064.3587 063.6038 15.56353180777545 CXO 1 25867U 99040B 12168.94121614 -.00001204 00000-0 00000+0 0 7531 2 25867 072.5066 004.7349 8749350 278.1842 359.7945 00.37799111 9156 ____________________________________________________________________ These 2-Line ...Continue Reading

[list_settings.list_name] Current TLEs

June 13th 2012 PST

HST 1 20580U 90037B 12165.20520250 .00001352 00000-0 86836-4 0 161 2 20580 028.4691 169.6046 0002857 015.0164 345.0555 15.02550383 14136 ISS (ZARYA) 1 25544U 98067A 12165.36160880 .00011080 00000-0 16074-3 0 7389 2 25544 051.6371 141.5264 0010697 061.9990 073.2304 15.56328323777418 CXO 1 25867U 99040B 12166.30016500 -.00001246 00000-0 00000+0 0 7521 2 25867 072.4935 004.8955 8751115 278.2072 000.2148 00.37802059 9140 ____________________________________________________________________ These 2-Line ...Continue Reading

[list_settings.list_name] Current TLEs

June 12th 2012 PST

HST 1 20580U 90037B 12164.20885648 .00001299 00000-0 82955-4 0 152 2 20580 028.4686 176.1272 0002825 002.6038 357.4358 15.02547699 13987 ISS (ZARYA) 1 25544U 98067A 12164.46386645 .00010380 00000-0 15117-3 0 7321 2 25544 051.6376 146.0181 0010698 059.2640 082.7914 15.56304422777274 CXO 1 25867U 99040B 12166.30016500 -.00001246 00000-0 00000+0 0 7521 2 25867 072.4935 004.8955 8751115 278.2072 000.2148 00.37802059 9140 ____________________________________________________________________ These 2-Line ...Continue Reading

[list_settings.list_name] Current TLEs

June 11th 2012 PST

HST 1 20580U 90037B 12161.21982632 .00001773 00000-0 11776-3 0 149 2 20580 028.4676 195.6912 0003227 338.2884 021.7540 15.02542660 13535 ISS (ZARYA) 1 25544U 98067A 12163.43547664 .00010548 00000-0 15363-3 0 7258 2 25544 051.6378 151.1620 0010519 055.7135 080.8038 15.56283028777110 CXO 1 25867U 99040B 12163.65091668 -.00001118 00000-0 00000+0 0 7511 2 25867 072.4718 005.0815 8754250 278.2094 359.5830 00.37804260 9137 ____________________________________________________________________ These 2-Line ...Continue Reading

[list_settings.list_name] Current TLEs

June 10th 2012 PST

HST 1 20580U 90037B 12161.21982632 .00001773 00000-0 11776-3 0 149 2 20580 028.4676 195.6912 0003227 338.2884 021.7540 15.02542660 13535 ISS (ZARYA) 1 25544U 98067A 12162.41254369 .00010872 00000-0 15824-3 0 7209 2 25544 051.6375 156.2772 0010517 051.8904 109.7595 15.56261578776956 CXO 1 25867U 99040B 12163.65091668 -.00001118 00000-0 00000+0 0 7511 2 25867 072.4718 005.0815 8754250 278.2094 359.5830 00.37804260 9137 ____________________________________________________________________ These 2-Line ...Continue Reading
  • This mailing list is a public mailing list - anyone may join or leave, at any time.
  • This mailing list is announce-only.

International Space Station (ISS) / Hubble Space Telescope (HST) / Chandra X-Ray Observatory Orbital Data via EMAIL

Privacy Policy:

Private list